Home   Weather   Livonia   Past weeks

Flag for USA Past Weather in Livonia, Michigan, USA — Yesterday and Last 2 Weeks

Now
55 °F

Mostly cloudy.


Feels Like: 54 °F
Forecast: 44 / 62 °F
Wind: 6 mph from East

Location: Detroit Metropolitan Wayne County Airport

Current Time: Apr 30, 2017 at 5:10:18 pm

Latest Report: Apr 30, 2017 at 3:53 pm


Visibility: 7 mi

Pressure: 29.88 "Hg

Humidity: 87%

Dew Point: 51 °F

Location of LivoniaLocation

Past Weather in Livonia — Graph

°F

Livonia Temperature Yesterday

Maximum temperature yesterday: 56 °F (at 12:53 am)
Minimum temperature yesterday: 44 °F (at 11:53 pm)
Average temperature yesterday: 49 °F

High & Low Weather Summary for the Past Weeks

 TemperatureHumidityPressure
High83 °F (Apr 15, 3:53 pm)100% (Apr 20, 10:53 pm)30.35 "Hg (Apr 20, 10:53 pm)
Low38 °F (Apr 23, 4:53 am)24% (Apr 23, 7:53 pm)29.49 "Hg (Apr 27, 5:53 am)
Average57 °F66%29.97 "Hg
* Reported Apr 15 3:53 pm — Apr 30 3:43 pm, Livonia, Weather by CustomWeather, © 2017

Note: Actual official high and low records may vary slightly from our data, if they occured in-between our weather recording intervals... More about our weather records

Advertising

Livonia Weather History for the Previous 24 Hours

Scroll right to see more
 ConditionsComfort  
Time TempWeatherWind HumidityBarometerVisibility
3:43 pm
Sun, Apr 30
55 °FCloudy.6 mph87%29.88 "Hg7 mi
2:53 pm52 °FLow clouds.6 mph89%29.91 "Hg7 mi
1:53 pm50 °FOvercast.8 mph89%29.94 "Hg7 mi
12:53 pm50 °FOvercast.10 mph86%29.95 "Hg7 mi
11:53 am50 °FOvercast.9 mph83%29.98 "Hg8 mi
10:53 am49 °FOvercast.10 mph80%30.00 "Hg10 mi
9:53 am48 °FOvercast.8 mph80%30.02 "Hg10 mi
8:53 am47 °FOvercast.9 mph80%30.03 "Hg10 mi
7:53 am46 °FOvercast.10 mph79%30.04 "Hg10 mi
6:53 am46 °FOvercast.15 mph77%30.04 "Hg10 mi
5:53 am46 °FOvercast.9 mph89%30.06 "Hg9 mi
5:15 am45 °FMostly cloudy.9 mph90%30.06 "Hg8 mi
4:53 am44 °FMostly cloudy.8 mph93%30.05 "Hg8 mi
3:53 am43 °FOvercast.8 mph97%30.08 "Hg8 mi
3:17 am43 °FLight rain. Fog.9 mph93%30.11 "Hg4 mi
3:03 am43 °FRain. Fog.7 mph93%30.13 "Hg2 mi
2:31 am43 °FThunderstorms. Fog.8 mph89%30.14 "Hg2 mi
2:14 am44 °FThunderstorms. Mostly cloudy.10 mph82%30.11 "Hg8 mi
1:53 am43 °FLight rain. Mostly cloudy.8 mph82%30.12 "Hg8 mi
1:30 am43 °FLight rain. Overcast.8 mph76%30.13 "Hg9 mi
1:03 am43 °FThunderstorms. Mostly cloudy.12 mph74%30.11 "Hg9 mi
12:53 am43 °FLight rain. Mostly cloudy.13 mph68%30.13 "Hg9 mi
11:53 pm
Sat, Apr 29
44 °FOvercast.16 mph58%30.16 "Hg10 mi
10:53 pm46 °FOvercast.15 mph54%30.21 "Hg10 mi
9:53 pm47 °FOvercast.9 mph52%30.23 "Hg10 mi
8:53 pm48 °FOvercast.10 mph54%30.22 "Hg10 mi
7:53 pm47 °FOvercast.12 mph59%30.22 "Hg10 mi
6:53 pm48 °FOvercast.12 mph63%30.21 "Hg10 mi
5:53 pm49 °FOvercast.13 mph57%30.22 "Hg10 mi
Weather by CustomWeather, © 2017

See weather overviewHow to use our weather pages